Time,TemperatureF,DewpointF,PressureIn,WindDirection,WindDirectionDegrees,WindSpeedMPH,WindSpeedGustMPH,Humidity,HourlyPrecipIn,Conditions,Clouds,dailyrainin,SoftwareType,DateUTC
2013-07-22 00:05:00,75.3,72.5,29.76,SSE,152,0.0,0.0,91,0.00,,,0.00,Wunderground v.1.15,2013-07-22 05:05:00,
2013-07-22 00:11:00,75.3,72.5,29.76,SSE,160,0.0,0.0,91,0.00,,,0.00,Wunderground v.1.15,2013-07-22 05:11:00,
2013-07-22 00:20:00,75.4,72.3,29.76,SSE,160,0.0,0.0,90,0.00,,,0.00,Wunderground v.1.15,2013-07-22 05:20:00,
2013-07-22 00:31:00,75.3,72.2,29.76,SSE,160,0.0,0.0,90,0.00,,,0.00,Wunderground v.1.15,2013-07-22 05:31:00,
2013-07-22 00:41:00,75.3,72.2,29.75,SSE,148,0.0,0.0,90,0.00,,,0.00,Wunderground v.1.15,2013-07-22 05:41:00,
2013-07-22 00:50:00,75.2,72.1,29.75,SSE,160,0.0,0.0,90,0.00,,,0.00,Wunderground v.1.15,2013-07-22 05:50:00,
2013-07-22 00:56:00,75.1,72.0,29.75,SSE,166,0.0,1.0,90,0.00,,,0.00,Wunderground v.1.15,2013-07-22 05:56:00,
2013-07-22 01:05:00,75.0,71.9,29.75,SSW,207,0.0,0.0,90,0.00,,,0.00,Wunderground v.1.15,2013-07-22 06:05:00,
2013-07-22 01:15:00,74.9,71.8,29.75,SSE,155,0.0,0.0,90,0.00,,,0.00,Wunderground v.1.15,2013-07-22 06:15:00,
2013-07-22 01:35:00,74.7,71.6,29.75,SW,216,0.0,1.0,90,0.00,,,0.00,Wunderground v.1.15,2013-07-22 06:35:00,
2013-07-22 01:41:00,74.6,71.5,29.75,SSE,155,0.0,1.0,90,0.00,,,0.00,Wunderground v.1.15,2013-07-22 06:41:00,
2013-07-22 01:50:00,74.5,71.4,29.75,SSE,158,0.0,1.0,90,0.00,,,0.00,Wunderground v.1.15,2013-07-22 06:50:00,
2013-07-22 01:55:00,74.5,71.4,29.74,SSE,159,0.0,0.0,90,0.00,,,0.00,Wunderground v.1.15,2013-07-22 06:55:00,
2013-07-22 02:05:00,74.3,71.2,29.74,SSE,151,0.0,1.0,90,0.00,,,0.00,Wunderground v.1.15,2013-07-22 07:05:00,
2013-07-22 02:11:00,74.3,71.2,29.74,SSW,198,0.0,0.0,90,0.00,,,0.00,Wunderground v.1.15,2013-07-22 07:11:00,
2013-07-22 02:20:00,74.2,71.1,29.74,SSE,153,0.0,0.0,90,0.00,,,0.00,Wunderground v.1.15,2013-07-22 07:20:00,
2013-07-22 02:30:00,74.1,70.6,29.73,South,190,1.0,1.0,89,0.00,,,0.00,Wunderground v.1.15,2013-07-22 07:30:00,
2013-07-22 02:35:00,74.1,70.6,29.73,SSE,155,1.0,1.0,89,0.00,,,0.00,Wunderground v.1.15,2013-07-22 07:35:00,
2013-07-22 02:40:00,74.0,70.6,29.72,SSW,194,1.0,1.0,89,0.00,,,0.00,Wunderground v.1.15,2013-07-22 07:40:00,
2013-07-22 02:50:00,73.9,70.5,29.73,SW,226,0.0,1.0,89,0.00,,,0.00,Wunderground v.1.15,2013-07-22 07:50:00,
2013-07-22 02:56:00,73.7,70.3,29.73,SSW,198,0.0,1.0,89,0.00,,,0.00,Wunderground v.1.15,2013-07-22 07:56:00,
2013-07-22 03:05:00,73.5,70.1,29.73,SSW,210,0.0,1.0,89,0.00,,,0.00,Wunderground v.1.15,2013-07-22 08:05:00,
2013-07-22 03:11:00,73.4,70.3,29.73,SSW,211,0.0,0.0,90,0.00,,,0.00,Wunderground v.1.15,2013-07-22 08:11:00,
2013-07-22 03:20:00,73.1,70.0,29.73,SSW,198,0.0,0.0,90,0.00,,,0.00,Wunderground v.1.15,2013-07-22 08:20:00,
2013-07-22 03:26:00,73.0,69.9,29.73,SSW,195,0.0,1.0,90,0.00,,,0.00,Wunderground v.1.15,2013-07-22 08:26:00,
2013-07-22 03:35:00,72.8,69.7,29.72,SSE,158,0.0,0.0,90,0.00,,,0.00,Wunderground v.1.15,2013-07-22 08:35:00,
2013-07-22 03:45:00,72.7,69.6,29.72,South,176,0.0,0.0,90,0.00,,,0.00,Wunderground v.1.15,2013-07-22 08:45:00,
2013-07-22 03:50:00,72.6,69.5,29.73,South,187,0.0,0.0,90,0.00,,,0.00,Wunderground v.1.15,2013-07-22 08:50:00,
2013-07-22 03:55:00,72.6,69.5,29.73,SSE,162,0.0,0.0,90,0.00,,,0.00,Wunderground v.1.15,2013-07-22 08:55:00,
2013-07-22 04:05:00,72.5,69.4,29.72,SSW,200,0.0,1.0,90,0.00,,,0.00,Wunderground v.1.15,2013-07-22 09:05:00,
2013-07-22 04:11:00,72.5,69.4,29.72,SSE,160,0.0,0.0,90,0.00,,,0.00,Wunderground v.1.15,2013-07-22 09:11:00,
2013-07-22 04:20:00,72.3,69.2,29.72,SSW,194,0.0,0.0,90,0.00,,,0.00,Wunderground v.1.15,2013-07-22 09:20:00,
2013-07-22 04:26:00,72.3,69.2,29.72,SSW,194,0.0,0.0,90,0.00,,,0.00,Wunderground v.1.15,2013-07-22 09:26:00,
2013-07-22 04:35:00,72.2,69.1,29.72,SSW,195,0.0,0.0,90,0.00,,,0.00,Wunderground v.1.15,2013-07-22 09:35:00,
2013-07-22 04:45:00,72.0,68.9,29.72,SSW,195,0.0,0.0,90,0.00,,,0.00,Wunderground v.1.15,2013-07-22 09:45:00,
2013-07-22 04:50:00,71.9,68.8,29.72,SSW,196,0.0,0.0,90,0.00,,,0.00,Wunderground v.1.15,2013-07-22 09:50:00,
2013-07-22 04:55:00,71.8,69.0,29.72,SSW,203,0.0,0.0,91,0.00,,,0.00,Wunderground v.1.15,2013-07-22 09:55:00,
2013-07-22 05:05:00,71.7,68.9,29.72,SSW,197,0.0,0.0,91,0.00,,,0.00,Wunderground v.1.15,2013-07-22 10:05:00,
2013-07-22 05:11:00,71.7,68.9,29.72,SSE,160,0.0,0.0,91,0.00,,,0.00,Wunderground v.1.15,2013-07-22 10:11:00,
2013-07-22 05:20:00,71.5,68.7,29.73,SSW,197,0.0,1.0,91,0.00,,,0.00,Wunderground v.1.15,2013-07-22 10:20:00,
2013-07-22 05:31:00,71.4,68.6,29.73,SSW,197,0.0,0.0,91,0.00,,,0.00,Wunderground v.1.15,2013-07-22 10:31:00,
2013-07-22 05:45:00,71.2,68.8,29.73,SSW,207,0.0,0.0,92,0.00,,,0.00,Wunderground v.1.15,2013-07-22 10:45:00,
2013-07-22 05:55:00,71.2,68.8,29.73,South,188,0.0,0.0,92,0.00,,,0.00,Wunderground v.1.15,2013-07-22 10:55:00,
2013-07-22 06:05:00,71.2,68.8,29.73,South,188,0.0,0.0,92,0.00,,,0.00,Wunderground v.1.15,2013-07-22 11:05:00,
2013-07-22 06:11:00,71.2,68.8,29.73,South,188,0.0,0.0,92,0.00,,,0.00,Wunderground v.1.15,2013-07-22 11:11:00,
2013-07-22 06:20:00,71.1,68.7,29.72,South,188,0.0,0.0,92,0.00,,,0.00,Wunderground v.1.15,2013-07-22 11:20:00,
2013-07-22 06:30:00,70.9,68.5,29.72,South,188,0.0,0.0,92,0.00,,,0.00,Wunderground v.1.15,2013-07-22 11:30:00,
2013-07-22 06:35:00,70.9,68.5,29.72,South,188,0.0,0.0,92,0.00,,,0.00,Wunderground v.1.15,2013-07-22 11:35:00,
2013-07-22 06:45:00,70.9,68.5,29.72,South,189,0.0,0.0,92,0.00,,,0.00,Wunderground v.1.15,2013-07-22 11:45:00,
2013-07-22 06:51:00,70.9,68.5,29.72,South,188,0.0,0.0,92,0.00,,,0.00,Wunderground v.1.15,2013-07-22 11:51:00,
2013-07-22 06:56:00,71.0,68.6,29.72,South,188,0.0,0.0,92,0.00,,,0.00,Wunderground v.1.15,2013-07-22 11:56:00,
2013-07-22 07:01:00,71.1,68.7,29.72,South,189,0.0,0.0,92,0.00,,,0.00,Wunderground v.1.15,2013-07-22 12:01:00,
2013-07-22 07:11:00,71.1,68.7,29.72,South,188,0.0,0.0,92,0.00,,,0.00,Wunderground v.1.15,2013-07-22 12:11:00,
2013-07-22 07:20:00,71.3,68.9,29.72,South,188,0.0,0.0,92,0.00,,,0.00,Wunderground v.1.15,2013-07-22 12:20:00,
2013-07-22 07:25:00,71.4,69.0,29.73,SE,146,0.0,0.0,92,0.00,,,0.00,Wunderground v.1.15,2013-07-22 12:25:00,
2013-07-22 07:35:00,71.7,69.3,29.73,SSE,165,0.0,0.0,92,0.00,,,0.00,Wunderground v.1.15,2013-07-22 12:35:00,
2013-07-22 07:41:00,71.9,69.4,29.74,SW,222,0.0,0.0,92,0.00,,,0.00,Wunderground v.1.15,2013-07-22 12:41:00,
2013-07-22 07:50:00,72.3,69.5,29.74,South,172,0.0,0.0,91,0.00,,,0.00,Wunderground v.1.15,2013-07-22 12:50:00,
2013-07-22 08:00:00,72.6,69.8,29.74,SSE,155,0.0,1.0,91,0.00,,,0.00,Wunderground v.1.15,2013-07-22 13:00:00,
2013-07-22 08:10:00,73.1,70.0,29.75,SW,223,0.0,0.0,90,0.00,,,0.00,Wunderground v.1.15,2013-07-22 13:10:00,
2013-07-22 08:15:00,73.3,70.2,29.75,WNW,283,0.0,0.0,90,0.00,,,0.00,Wunderground v.1.15,2013-07-22 13:15:00,
2013-07-22 08:25:00,73.7,70.6,29.75,SW,222,1.0,1.0,90,0.00,,,0.00,Wunderground v.1.15,2013-07-22 13:25:00,
2013-07-22 08:35:00,74.2,70.7,29.75,SSW,200,1.0,1.0,89,0.00,,,0.00,Wunderground v.1.15,2013-07-22 13:35:00,
2013-07-22 08:40:00,74.4,70.9,29.75,SSW,204,1.0,1.0,89,0.00,,,0.00,Wunderground v.1.15,2013-07-22 13:40:00,
2013-07-22 08:50:00,75.0,71.5,29.75,SSW,203,0.0,0.0,89,0.00,,,0.00,Wunderground v.1.15,2013-07-22 13:50:00,
2013-07-22 08:55:00,75.3,71.8,29.75,SW,226,0.0,1.0,89,0.00,,,0.00,Wunderground v.1.15,2013-07-22 13:55:00,
2013-07-22 09:05:00,75.8,72.0,29.75,SE,141,0.0,1.0,88,0.00,,,0.00,Wunderground v.1.15,2013-07-22 14:05:00,
2013-07-22 09:16:00,76.5,72.3,29.75,SSE,160,1.0,1.0,87,0.00,,,0.00,Wunderground v.1.15,2013-07-22 14:16:00,
2013-07-22 09:25:00,77.2,72.7,29.75,SW,226,1.0,1.0,86,0.00,,,0.00,Wunderground v.1.15,2013-07-22 14:25:00,
2013-07-22 09:30:00,77.4,72.9,29.75,SW,229,1.0,1.0,86,0.00,,,0.00,Wunderground v.1.15,2013-07-22 14:30:00,
2013-07-22 09:35:00,77.7,73.2,29.75,SSE,155,0.0,1.0,86,0.00,,,0.00,Wunderground v.1.15,2013-07-22 14:35:00,
2013-07-22 09:45:00,78.2,73.3,29.74,SW,231,1.0,1.0,85,0.00,,,0.00,Wunderground v.1.15,2013-07-22 14:45:00,
2013-07-22 09:51:00,78.5,73.6,29.74,SSW,205,1.0,1.0,85,0.00,,,0.00,Wunderground v.1.15,2013-07-22 14:51:00,
2013-07-22 10:00:00,79.2,73.6,29.75,South,177,0.0,2.0,83,0.00,,,0.00,Wunderground v.1.15,2013-07-22 15:00:00,
2013-07-22 10:05:00,79.6,74.0,29.74,SSW,212,1.0,2.0,83,0.00,,,0.00,Wunderground v.1.15,2013-07-22 15:05:00,
2013-07-22 10:15:00,80.3,74.7,29.74,SSW,207,1.0,4.0,83,0.00,,,0.00,Wunderground v.1.15,2013-07-22 15:15:00,
2013-07-22 10:21:00,80.5,74.5,29.74,SSW,206,1.0,1.0,82,0.00,,,0.00,Wunderground v.1.15,2013-07-22 15:21:00,
2013-07-22 10:30:00,81.1,75.1,29.74,SSW,201,1.0,1.0,82,0.00,,,0.00,Wunderground v.1.15,2013-07-22 15:30:00,
2013-07-22 10:35:00,81.4,75.4,29.73,WSW,244,1.0,1.0,82,0.00,,,0.00,Wunderground v.1.15,2013-07-22 15:35:00,
2013-07-22 10:40:00,81.7,74.9,29.73,SE,139,1.0,1.0,80,0.00,,,0.00,Wunderground v.1.15,2013-07-22 15:40:00,
2013-07-22 10:50:00,82.0,74.8,29.73,SSE,153,1.0,1.0,79,0.00,,,0.00,Wunderground v.1.15,2013-07-22 15:50:00,
2013-07-22 11:00:00,82.5,74.9,29.73,WSW,248,1.0,2.0,78,0.00,,,0.00,Wunderground v.1.15,2013-07-22 16:00:00,
2013-07-22 11:05:00,82.8,75.2,29.72,SW,221,1.0,2.0,78,0.00,,,0.00,Wunderground v.1.15,2013-07-22 16:05:00,
2013-07-22 11:15:00,83.1,75.1,29.72,SSW,198,1.0,1.0,77,0.00,,,0.00,Wunderground v.1.15,2013-07-22 16:15:00,
2013-07-22 11:25:00,83.5,75.1,29.73,SSE,159,1.0,1.0,76,0.00,,,0.00,Wunderground v.1.15,2013-07-22 16:25:00,
2013-07-22 11:30:00,83.8,75.0,29.73,SW,217,1.0,1.0,75,0.00,,,0.00,Wunderground v.1.15,2013-07-22 16:30:00,
2013-07-22 11:40:00,84.3,75.1,29.73,South,190,1.0,2.0,74,0.00,,,0.00,Wunderground v.1.15,2013-07-22 16:40:00,
2013-07-22 11:50:00,84.7,75.5,29.73,South,173,1.0,1.0,74,0.00,,,0.00,Wunderground v.1.15,2013-07-22 16:50:00,
2013-07-22 11:55:00,84.8,75.2,29.73,SW,215,1.0,1.0,73,0.00,,,0.00,Wunderground v.1.15,2013-07-22 16:55:00,
2013-07-22 12:05:00,85.0,75.8,29.73,South,177,0.0,1.0,74,0.00,,,0.00,Wunderground v.1.15,2013-07-22 17:05:00,
2013-07-22 12:16:00,85.5,75.4,29.73,West,266,1.0,1.0,72,0.00,,,0.00,Wunderground v.1.15,2013-07-22 17:16:00,
2013-07-22 12:25:00,86.3,76.6,29.73,WSW,243,1.0,1.0,73,0.00,,,0.00,Wunderground v.1.15,2013-07-22 17:25:00,
2013-07-22 12:35:00,86.7,76.2,29.73,SW,231,1.0,1.0,71,0.00,,,0.00,Wunderground v.1.15,2013-07-22 17:35:00,
2013-07-22 12:40:00,87.0,76.5,29.73,SE,140,1.0,1.0,71,0.00,,,0.00,Wunderground v.1.15,2013-07-22 17:40:00,
2013-07-22 12:50:00,87.3,75.4,29.73,SE,139,1.0,1.0,68,0.00,,,0.00,Wunderground v.1.15,2013-07-22 17:50:00,
2013-07-22 13:05:00,87.4,76.4,29.73,West,261,1.0,1.0,70,0.00,,,0.00,Wunderground v.1.15,2013-07-22 18:05:00,
2013-07-22 13:20:00,87.5,75.6,29.72,SE,136,1.0,1.0,68,0.00,,,0.00,Wunderground v.1.15,2013-07-22 18:20:00,
2013-07-22 13:35:00,89.3,76.0,29.72,WSW,250,1.0,1.0,65,0.00,,,0.00,Wunderground v.1.15,2013-07-22 18:35:00,
2013-07-22 13:46:00,90.2,75.4,29.72,SSW,197,0.0,0.0,62,0.00,,,0.00,Wunderground v.1.15,2013-07-22 18:46:00,
2013-07-22 14:05:00,91.6,74.7,29.71,SW,232,1.0,2.0,58,0.00,,,0.00,Wunderground v.1.15,2013-07-22 19:05:00,
2013-07-22 14:10:00,91.7,75.3,29.71,WSW,243,1.0,4.0,59,0.00,,,0.00,Wunderground v.1.15,2013-07-22 19:10:00,
2013-07-22 14:16:00,91.6,73.1,29.71,SW,226,1.0,1.0,55,0.00,,,0.00,Wunderground v.1.15,2013-07-22 19:16:00,
2013-07-22 14:25:00,91.7,76.3,29.71,SSW,200,1.0,1.0,61,0.00,,,0.00,Wunderground v.1.15,2013-07-22 19:25:00,
2013-07-22 14:35:00,92.2,74.2,29.71,SSW,209,1.0,1.0,56,0.00,,,0.00,Wunderground v.1.15,2013-07-22 19:35:00,
2013-07-22 14:45:00,92.3,74.9,29.72,SSW,201,2.0,2.0,57,0.00,,,0.00,Wunderground v.1.15,2013-07-22 19:45:00,
2013-07-22 14:51:00,92.3,75.9,29.72,SSE,163,1.0,2.0,59,0.00,,,0.00,Wunderground v.1.15,2013-07-22 19:51:00,
2013-07-22 15:01:00,92.2,75.3,29.72,West,276,1.0,1.0,58,0.00,,,0.00,Wunderground v.1.15,2013-07-22 20:01:00,
2013-07-22 15:11:00,92.1,74.1,29.72,WSW,256,1.0,1.0,56,0.00,,,0.00,Wunderground v.1.15,2013-07-22 20:11:00,
2013-07-22 15:21:00,92.4,75.5,29.72,South,183,2.0,2.0,58,0.00,,,0.00,Wunderground v.1.15,2013-07-22 20:21:00,
2013-07-22 15:25:00,92.2,75.3,29.72,West,262,2.0,2.0,58,0.00,,,0.00,Wunderground v.1.15,2013-07-22 20:25:00,
2013-07-22 15:30:00,92.2,74.8,29.72,SSE,150,2.0,2.0,57,0.00,,,0.00,Wunderground v.1.15,2013-07-22 20:30:00,
2013-07-22 15:40:00,92.5,75.0,29.72,SW,218,1.0,1.0,57,0.00,,,0.00,Wunderground v.1.15,2013-07-22 20:40:00,
2013-07-22 15:50:00,91.6,75.2,29.72,SSE,150,1.0,2.0,59,0.00,,,0.00,Wunderground v.1.15,2013-07-22 20:50:00,
2013-07-22 15:55:00,91.8,75.9,29.71,West,280,1.0,3.0,60,0.00,,,0.00,Wunderground v.1.15,2013-07-22 20:55:00,
2013-07-22 16:00:00,92.2,74.8,29.71,SSE,148,1.0,2.0,57,0.00,,,0.00,Wunderground v.1.15,2013-07-22 21:00:00,
2013-07-22 16:05:00,93.1,75.6,29.72,SSW,210,2.0,2.0,57,0.00,,,0.00,Wunderground v.1.15,2013-07-22 21:05:00,
2013-07-22 16:10:00,93.1,75.6,29.72,SW,225,2.0,3.0,57,0.00,,,0.00,Wunderground v.1.15,2013-07-22 21:10:00,
2013-07-22 16:20:00,93.3,74.7,29.72,SSW,204,2.0,2.0,55,0.00,,,0.00,Wunderground v.1.15,2013-07-22 21:20:00,
2013-07-22 16:26:00,93.6,75.5,29.71,SE,139,2.0,2.0,56,0.00,,,0.00,Wunderground v.1.15,2013-07-22 21:26:00,
2013-07-22 16:35:00,93.6,75.0,29.72,WSW,238,2.0,2.0,55,0.00,,,0.00,Wunderground v.1.15,2013-07-22 21:35:00,
2013-07-22 16:40:00,93.8,74.6,29.71,SW,218,1.0,2.0,54,0.00,,,0.00,Wunderground v.1.15,2013-07-22 21:40:00,
2013-07-22 16:45:00,93.7,74.0,29.72,SW,224,1.0,2.0,53,0.00,,,0.00,Wunderground v.1.15,2013-07-22 21:45:00,
2013-07-22 16:55:00,93.7,74.0,29.71,SW,221,2.0,2.0,53,0.00,,,0.00,Wunderground v.1.15,2013-07-22 21:55:00,
2013-07-22 17:05:00,93.2,74.6,29.71,South,169,1.0,2.0,55,0.00,,,0.00,Wunderground v.1.15,2013-07-22 22:05:00,
2013-07-22 17:15:00,92.9,74.9,29.72,SSW,205,1.0,2.0,56,0.00,,,0.00,Wunderground v.1.15,2013-07-22 22:15:00,
2013-07-22 17:20:00,92.6,74.6,29.71,SW,219,1.0,2.0,56,0.00,,,0.00,Wunderground v.1.15,2013-07-22 22:20:00,
2013-07-22 17:30:00,92.3,73.8,29.71,South,181,2.0,2.0,55,0.00,,,0.00,Wunderground v.1.15,2013-07-22 22:30:00,
2013-07-22 17:41:00,92.3,73.8,29.70,SSW,210,1.0,1.0,55,0.00,,,0.00,Wunderground v.1.15,2013-07-22 22:41:00,
2013-07-22 17:50:00,92.1,73.6,29.70,SW,233,1.0,1.0,55,0.00,,,0.00,Wunderground v.1.15,2013-07-22 22:50:00,
2013-07-22 18:00:00,91.8,73.3,29.69,SW,231,1.0,3.0,55,0.00,,,0.00,Wunderground v.1.15,2013-07-22 23:00:00,
2013-07-22 18:10:00,91.1,72.7,29.69,SSW,208,1.0,1.0,55,0.00,,,0.00,Wunderground v.1.15,2013-07-22 23:10:00,
2013-07-22 18:15:00,90.6,72.8,29.68,SW,227,1.0,1.0,56,0.00,,,0.00,Wunderground v.1.15,2013-07-22 23:15:00,
2013-07-22 18:26:00,89.9,72.6,29.69,SW,217,0.0,0.0,57,0.00,,,0.00,Wunderground v.1.15,2013-07-22 23:26:00,
2013-07-22 18:36:00,89.4,72.7,29.68,SSW,198,0.0,1.0,58,0.00,,,0.00,Wunderground v.1.15,2013-07-22 23:36:00,
2013-07-22 18:41:00,89.1,72.9,29.68,South,172,0.0,1.0,59,0.00,,,0.00,Wunderground v.1.15,2013-07-22 23:41:00,
2013-07-22 18:50:00,88.9,72.7,29.68,SW,218,0.0,0.0,59,0.00,,,0.00,Wunderground v.1.15,2013-07-22 23:50:00,
2013-07-22 18:56:00,88.9,73.2,29.68,SSW,194,0.0,0.0,60,0.00,,,0.00,Wunderground v.1.15,2013-07-22 23:56:00,
2013-07-22 19:05:00,88.7,73.5,29.68,South,174,0.0,1.0,61,0.00,,,0.00,Wunderground v.1.15,2013-07-23 00:05:00,
2013-07-22 19:11:00,88.5,73.3,29.69,South,174,0.0,1.0,61,0.00,,,0.00,Wunderground v.1.15,2013-07-23 00:11:00,
2013-07-22 19:20:00,88.1,73.0,29.68,South,174,0.0,0.0,61,0.00,,,0.00,Wunderground v.1.15,2013-07-23 00:20:00,
2013-07-22 19:26:00,88.0,73.8,29.68,South,174,0.0,0.0,63,0.00,,,0.00,Wunderground v.1.15,2013-07-23 00:26:00,
2013-07-22 19:35:00,87.3,74.1,29.68,South,174,0.0,0.0,65,0.00,,,0.00,Wunderground v.1.15,2013-07-23 00:35:00,
2013-07-22 19:41:00,87.0,73.8,29.68,South,174,0.0,0.0,65,0.00,,,0.00,Wunderground v.1.15,2013-07-23 00:41:00,
2013-07-22 19:50:00,86.6,73.9,29.68,South,174,0.0,0.0,66,0.00,,,0.00,Wunderground v.1.15,2013-07-23 00:50:00,
2013-07-22 19:56:00,86.4,73.7,29.69,South,174,0.0,0.0,66,0.00,,,0.00,Wunderground v.1.15,2013-07-23 00:56:00,
2013-07-22 20:11:00,86.3,74.5,29.67,South,174,0.0,0.0,68,0.00,,,0.00,Wunderground v.1.15,2013-07-23 01:11:00,
2013-07-22 20:20:00,86.4,75.5,29.69,South,174,0.0,0.0,70,0.00,,,0.00,Wunderground v.1.15,2013-07-23 01:20:00,
2013-07-22 20:26:00,86.3,74.5,29.70,South,174,0.0,0.0,68,0.00,,,0.00,Wunderground v.1.15,2013-07-23 01:26:00,
2013-07-22 20:35:00,86.6,75.2,29.69,South,174,0.0,0.0,69,0.00,,,0.00,Wunderground v.1.15,2013-07-23 01:35:00,
2013-07-22 20:41:00,86.2,74.8,29.69,South,174,0.0,0.0,69,0.00,,,0.00,Wunderground v.1.15,2013-07-23 01:41:00,
2013-07-22 20:50:00,84.8,73.9,29.69,South,174,0.0,0.0,70,0.00,,,0.00,Wunderground v.1.15,2013-07-23 01:50:00,
2013-07-22 21:00:00,83.6,72.8,29.69,WSW,240,0.0,0.0,70,0.00,,,0.00,Wunderground v.1.15,2013-07-23 02:00:00,
2013-07-22 21:11:00,82.9,71.7,29.70,WNW,302,1.0,1.0,69,0.00,,,0.00,Wunderground v.1.15,2013-07-23 02:11:00,
2013-07-22 21:20:00,82.5,70.9,29.71,WNW,302,0.0,1.0,68,0.00,,,0.00,Wunderground v.1.15,2013-07-23 02:20:00,
2013-07-22 21:30:00,82.1,70.9,29.71,WNW,303,0.0,0.0,69,0.00,,,0.00,Wunderground v.1.15,2013-07-23 02:30:00,
2013-07-22 21:40:00,81.3,70.6,29.72,NW,304,0.0,0.0,70,0.00,,,0.00,Wunderground v.1.15,2013-07-23 02:40:00,
2013-07-22 21:45:00,80.9,69.8,29.72,WNW,303,0.0,0.0,69,0.00,,,0.00,Wunderground v.1.15,2013-07-23 02:45:00,
2013-07-22 21:55:00,80.8,69.7,29.73,WNW,303,0.0,0.0,69,0.00,,,0.00,Wunderground v.1.15,2013-07-23 02:55:00,
2013-07-22 22:05:00,80.8,70.1,29.74,NNW,333,1.0,1.0,70,0.00,,,0.00,Wunderground v.1.15,2013-07-23 03:05:00,
2013-07-22 22:10:00,80.9,69.8,29.75,North,356,1.0,2.0,69,0.00,,,0.00,Wunderground v.1.15,2013-07-23 03:10:00,
2013-07-22 22:16:00,80.8,69.2,29.75,NE,56,1.0,2.0,68,0.00,,,0.00,Wunderground v.1.15,2013-07-23 03:16:00,
2013-07-22 22:25:00,80.6,68.2,29.76,NNE,19,1.0,2.0,66,0.00,,,0.00,Wunderground v.1.15,2013-07-23 03:25:00,
2013-07-22 22:30:00,80.4,66.2,29.76,NNE,20,1.0,1.0,62,0.00,,,0.00,Wunderground v.1.15,2013-07-23 03:30:00,
2013-07-22 22:40:00,80.3,65.6,29.77,North,4,1.0,1.0,61,0.00,,,0.00,Wunderground v.1.15,2013-07-23 03:40:00,
2013-07-22 22:45:00,80.1,65.9,29.77,NNE,18,1.0,1.0,62,0.00,,,0.00,Wunderground v.1.15,2013-07-23 03:45:00,
2013-07-22 22:55:00,79.4,65.7,29.78,NNE,16,1.0,1.0,63,0.00,,,0.00,Wunderground v.1.15,2013-07-23 03:55:00,
2013-07-22 23:05:00,79.0,65.8,29.78,NNE,23,1.0,1.0,64,0.00,,,0.00,Wunderground v.1.15,2013-07-23 04:05:00,
2013-07-22 23:10:00,78.8,65.6,29.78,North,6,1.0,1.0,64,0.00,,,0.00,Wunderground v.1.15,2013-07-23 04:10:00,
2013-07-22 23:20:00,78.4,65.2,29.78,North,4,1.0,1.0,64,0.00,,,0.00,Wunderground v.1.15,2013-07-23 04:20:00,
2013-07-22 23:25:00,78.3,65.6,29.78,North,359,1.0,1.0,65,0.00,,,0.00,Wunderground v.1.15,2013-07-23 04:25:00,
2013-07-22 23:30:00,78.1,65.4,29.78,North,358,0.0,1.0,65,0.00,,,0.00,Wunderground v.1.15,2013-07-23 04:30:00,
2013-07-22 23:40:00,77.8,65.1,29.78,North,359,0.0,1.0,65,0.00,,,0.00,Wunderground v.1.15,2013-07-23 04:40:00,
2013-07-22 23:45:00,77.6,64.9,29.78,North,359,0.0,0.0,65,0.00,,,0.00,Wunderground v.1.15,2013-07-23 04:45:00,
2013-07-22 23:50:00,77.4,65.1,29.78,North,358,0.0,0.0,66,0.00,,,0.00,Wunderground v.1.15,2013-07-23 04:50:00,
2013-07-22 23:55:00,77.2,65.4,29.78,North,359,0.0,0.0,67,0.00,,,0.00,Wunderground v.1.15,2013-07-23 04:55:00,